Weather History for Bangor, ME

Change the Weather History Date:

Thursday, February 13, 2014

  Actual Average Record
Temperature  
Mean Temperature 16 °F 20 °F  
Max Temperature 33 °F 31 °F 51 °F (1937)
Min Temperature -1 °F 10 °F -20 °F (1929)
Degree Days  
Heating Degree Days 49 45  
Month to date heating degree days 652 600  
Since 1 July heating degree days 5094 5007  
Cooling Degree Days 0 0  
Month to date cooling degree days 0 0  
Year to date cooling degree days 0 0  
Moisture  
Dew Point 19 °F    
Average Humidity 82    
Maximum Humidity 95    
Minimum Humidity 68    
Precipitation  
Precipitation 0.27 in 0.09 in 1.60 in (2008)
Month to date precipitation 0.76 1.14  
Year to date precipitation 3.94 4.03  
Snow  
Snow 5.20 in 0.60 in 6.30 in (1977)
Month to date snowfall 14.6 7.0  
Since 1 July snowfall 52.6 43.0  
Snow Depth 7.00 in    
Sea Level Pressure  
Sea Level Pressure 30.02 in    
Wind  
Wind Speed 6 mph (NE)    
Max Wind Speed 28 mph    
Max Gust Speed 37 mph    
Visibility 4 miles    
Events Fog , Rain , Snow    
T = Trace of Precipitation, MM = Missing Value Source: NWS Daily Summary

Daily Weather History Graph

Daily Weather History Graph

Search for Another Location

Airport:

Trip Planner

Search our weather history database for the weather conditions in past years. The results will help you decide how hot, cold, wet, or windy it might be!

Date:

Astronomy

Feb. 13, 2014 Rise Set
Actual Time 6:38 AM EST 5:00 PM EST
Civil Twilight 6:08 AM EST 5:31 PM EST
Nautical Twilight 5:34 AM EST 6:05 PM EST
Astronomical Twilight 5:00 AM EST 6:39 PM EST
Moon 4:05 PM EST (2/13) 5:30 AM EST (2/13)
Length of Visible Light 11h 22m
Length of Day
10h 21m
Waxing Gibbous, 98% of the Moon is Illuminated
Feb 13
Waxing Gibbous
Feb 14
Full
Feb 22
Last Quarter
Mar 1
New
Mar 8
First Quarter

Hourly Weather History & Observations

Time (EST) Temp. Windchill Dew Point Humidity Pressure Visibility Wind Dir Wind Speed Gust Speed Precip Events Conditions
12:53 AM 6.1 °F -2.8 °F 1.0 °F 80% 30.42 in 10.0 mi South 4.6 mph - N/A   Mostly Cloudy
1:53 AM 1.9 °F - -2.0 °F 83% 30.41 in 10.0 mi Calm Calm - N/A   Mostly Cloudy
2:53 AM 1.0 °F - -4.0 °F 79% 30.39 in 10.0 mi Calm Calm - N/A   Mostly Cloudy
3:44 AM 3.0 °F - -0.9 °F 84% 30.38 in 10.0 mi Calm Calm - N/A   Mostly Cloudy
3:53 AM 1.9 °F - -0.9 °F 88% 30.40 in 10.0 mi Calm Calm - N/A   Overcast
4:53 AM 9.0 °F - 5.0 °F 84% 30.39 in 10.0 mi Calm Calm - N/A   Overcast
5:53 AM 12.9 °F - 7.0 °F 77% 30.38 in 10.0 mi Calm Calm - N/A   Overcast
6:53 AM 12.9 °F - 7.0 °F 77% 30.38 in 10.0 mi Calm Calm - N/A   Overcast
7:53 AM 16.0 °F - 10.0 °F 77% 30.37 in 10.0 mi Calm Calm - N/A   Overcast
8:53 AM 18.0 °F - 10.0 °F 71% 30.32 in 10.0 mi Calm Calm - N/A   Overcast
9:53 AM 21.0 °F - 14.0 °F 74% 30.30 in 10.0 mi Calm Calm - N/A   Overcast
10:53 AM 26.1 °F 20.5 °F 17.1 °F 69% 30.26 in 10.0 mi East 4.6 mph - N/A   Overcast
11:53 AM 28.9 °F - 19.9 °F 69% 30.22 in 10.0 mi Calm Calm - N/A   Overcast
12:36 PM 30.9 °F 23.5 °F 21.9 °F 69% 30.18 in 2.0 mi ESE 8.1 mph - 0.00 in Snow Light Snow
12:41 PM 30.0 °F 21.7 °F 24.1 °F 79% 30.17 in 1.0 mi ESE 9.2 mph - 0.00 in Snow Light Snow
12:53 PM 28.9 °F 21.9 °F 25.0 °F 85% 30.18 in 0.8 mi ESE 6.9 mph - 0.00 in Snow Light Snow
1:12 PM 30.0 °F 26.5 °F 26.1 °F 85% 30.15 in 1.0 mi East 3.5 mph - 0.00 in Snow Light Snow
1:50 PM 30.2 °F 23.4 °F 26.6 °F 86% 30.11 in 0.8 mi NE 6.9 mph - 0.01 in Snow Light Snow
1:53 PM 30.0 °F 24.1 °F 27.0 °F 88% 30.12 in 0.8 mi NE 5.8 mph - 0.01 in Snow Light Snow
2:40 PM 30.0 °F 22.4 °F 27.0 °F 88% 30.06 in 0.8 mi NE 8.1 mph - 0.02 in Snow Light Snow
2:53 PM 30.0 °F 21.1 °F 27.0 °F 88% 30.07 in 1.0 mi NNE 10.4 mph - 0.02 in Snow Light Snow
3:39 PM 30.0 °F 21.1 °F 27.0 °F 88% 30.00 in 0.5 mi NNE 10.4 mph - 0.01 in Fog , Snow Snow
3:53 PM 30.0 °F 20.5 °F 27.0 °F 88% 30.00 in 0.5 mi NNE 11.5 mph - 0.01 in Fog , Snow Light Snow
4:53 PM 28.9 °F 18.2 °F 27.0 °F 92% 29.93 in 0.5 mi NNE 13.8 mph - 0.01 in Fog , Snow Snow
5:53 PM 28.9 °F 17.3 °F 27.0 °F 92% 29.88 in 0.5 mi NNE 16.1 mph - 0.02 in Fog , Snow Snow
6:11 PM 28.9 °F 18.2 °F 27.0 °F 92% 29.85 in 0.5 mi NNE 13.8 mph - 0.00 in Fog , Snow Snow
6:53 PM 28.9 °F 17.3 °F 27.0 °F 92% 29.81 in 0.5 mi NNE 16.1 mph - 0.03 in Fog , Snow Snow
7:53 PM 28.9 °F 16.5 °F 27.0 °F 92% 29.70 in 0.5 mi NNE 18.4 mph - 0.04 in Fog , Snow Snow
8:53 PM 30.0 °F 17.5 °F 28.0 °F 92% 29.57 in 2.0 mi NNE 19.6 mph 31.1 mph 0.05 in Rain , Snow Light Freezing Rain
9:53 PM 30.9 °F 18.7 °F 28.0 °F 89% 29.44 in 2.0 mi NNE 19.6 mph 27.6 mph 0.05 in Rain , Snow Light Freezing Rain
9:54 PM 30.9 °F 18.4 °F 28.0 °F 89% 29.44 in 1.0 mi NNE 20.7 mph 27.6 mph 0.00 in Rain , Snow Light Freezing Rain
10:13 PM 30.9 °F 19.1 °F 28.9 °F 92% 29.41 in 1.0 mi NE 18.4 mph 26.5 mph 0.00 in Snow Light Snow
10:53 PM 32.0 °F 19.5 °F 28.9 °F 88% 29.37 in 1.5 mi NE 21.9 mph 28.8 mph 0.01 in Snow Light Snow
11:50 PM 32.0 °F 20.5 °F 30.2 °F 93% 29.28 in 1.5 mi NNE 18.4 mph 25.3 mph 0.02 in Rain , Snow Light Freezing Rain
11:53 PM 32.0 °F 19.2 °F 30.0 °F 92% 29.28 in 1.5 mi NE 23.0 mph 31.1 mph 0.02 in Rain , Snow Light Freezing Rain